Overview Statistics Trail Chart Weather Telemetry Raw packets
 

This is the latest recevied weather packets stored in our database for station/object N1SU-13. If no packets are shown the sender has not sent any weather packets the latest 10 day(s).

<< 8 9 10 11 12 13 14 >>
Time Temp. Humidity Pressure Rain* Wind** Luminosity Snow
1788552805 16.67° C 66% 1011.8 hPa 0 mm - - -
1788552110 16.67° C 68% 1011.9 hPa 0 mm - - -
1788551497 16.67° C 67% 1011.8 hPa 0 mm - - -
1788550853 16.67° C 68% 1012 hPa 0 mm - - -
1788550174 16.11° C 70% 1012.1 hPa 0 mm - - -
1788549485 15.56° C 71% 1012.1 hPa 0 mm - - -
1788548801 15.56° C 72% 1012.3 hPa 0 mm - - -
1788548224 15° C 72% 1012.2 hPa 0 mm - - -
1788547658 14.44° C 75% 1012.2 hPa 0 mm - - -
1788547063 14.44° C 75% 1012.2 hPa 0 mm - - -
1788546482 14.44° C 75% 1012.3 hPa 0 mm - - -
1788545784 13.89° C 77% 1012.1 hPa 0 mm - - -
1788545152 13.33° C 80% 1012.3 hPa 0 mm - - -
1788544586 12.78° C 82% 1012.5 hPa 0 mm - - -
1788543924 12.78° C 83% 1012.5 hPa 0 mm - - -
1788543250 12.22° C 87% 1012.5 hPa 0 mm - - -
1788542638 11.67° C 86% 1012.5 hPa 0 mm - - -
1788542051 11.67° C 87% 1012.5 hPa 0 mm - - -
1788541353 11.67° C 88% 1012.6 hPa 0 mm - - -
1788540692 11.67° C 89% 1012.6 hPa 0 mm - - -
1788539992 11.67° C 88% 1012.5 hPa 0 mm - - -
1788539321 11.67° C 90% 1012.6 hPa 0 mm - - -
1788538735 11.67° C 91% 1012.6 hPa 0 mm - - -
1788538125 11.11° C 91% 1012.5 hPa 0 mm - - -
1788537530 11.11° C 90% 1012.7 hPa 0 mm - - -

* Rain latest hour (hover to see other rain measurements)
** Current wind speed in m/s (hover to see current wind gust speed)